weather.gov     
National Weather Service

Terminal Aerodrome Forecast
NWS Homepage
This page is being discontinued on March 12, 2014.
The same data is available at this site. Please update your bookmarks.
Thank you, and we apologize for the inconvenience.
Please send an email to SR-SRH.Webmaster@noaa.gov with any concerns.


Current Version
Previous Version:    01  02  03  04  05  06  07  08  09  10  11  12  13  14  15  16  17  18  19  20  21  22  23  24  25  26  27  28  29  30  
   31  
[Printable]
054
FTUS42 KILM 220800 AAA
TAFMYR
TAF AMD
KMYR 220851Z 2209/2306 36008KT 6SM -DZ BR OVC005
      TEMPO 2209/2212 4SM SHRA BR OVC004
     FM221600 35008KT P6SM OVC006
     FM230000 36006KT 3SM BR OVC004
      AMD LTD TO CLD VIS AND WIND TIL 221100=


U.S. Dept. of Commerce
NOAA National Weather Service
1325 East West Highway
Silver Spring, MD 20910
E-mail: w-nws.webmaster@noaa.gov
Page last modified: May 16, 2007
NATIONAL WEATHER SERVICE: for Safety, for Work, for Fun - FOR LIFE